QPF
0.09 0.06 0.03 0.00 0.00 0.00 0.00 0.00 0.00 0.00 0.00 0.00 0.00 0.00 0.00 0.00 0.00 0.00 0.00 0.00 0.00 0.00 0.00 0.00 0.00 0.00 0.00 0.00 0.00 0.00 0.00 0.00 0.00 0.00 0.00 0.00 0.00 0.00 0.00 0.00 0.00 0.00 0.00 0.00
0.08 0.04 0.01 0.00 0.00 0.00 0.00 0.00 0.00 0.00 0.00 0.00 0.00 0.00 0.00 0.00 0.00 0.00 0.00 0.00 0.00 0.00 0.00 0.00 0.00 0.00 0.00 0.00 0.00 0.00 0.00 0.00 0.00 0.00 0.00 0.00 0.00 0.00 0.00 0.00 0.00 0.00 0.00 0.00
0.05 0.02 0.00 0.00 0.00 0.00 0.00 0.00 0.00 0.00 0.00 0.00 0.00 0.00 0.00 0.00 0.00 0.00 0.00 0.00 0.00 0.00 0.00 0.00 0.00 0.00 0.00 0.00 0.00 0.00 0.00 0.00 0.00 0.00 0.00 0.00 0.00 0.00 0.00 0.00 0.00 0.00 0.00 0.00
0.02 0.00 0.00 0.00 0.00 0.00 0.00 0.00 0.00 0.00 0.00 0.00 0.00 0.00 0.00 0.00 0.00 0.00 0.00 0.00 0.00 0.00 0.00 0.00 0.00 0.00 0.00 0.00 0.00 0.00 0.00 0.00 0.00 0.00 0.00 0.00 0.00 0.00 0.00 0.00 0.00 0.00 0.00 0.00
0.02 0.00 0.00 0.00 0.00 0.00 0.00 0.00 0.00 0.00 0.00 0.00 0.00 0.00 0.00 0.00 0.00 0.00 0.00 0.00 0.00 0.00 0.00 0.00 0.00 0.00 0.00 0.00 0.00 0.00 0.00 0.00 0.00 0.00 0.00 0.00 0.00 0.00 0.00 0.00 0.00 0.00 0.00 0.00
0.00 0.00 0.00 0.00 0.00 0.00 0.00 0.00 0.00 0.00 0.00 0.00 0.00 0.00 0.00 0.00 0.00 0.00 0.00 0.00 0.00 0.00 0.00 0.00 0.00 0.00 0.00 0.00 0.00 0.00 0.00 0.00 0.00 0.00 0.00 0.00 0.00 0.00 0.00 0.00 0.00 0.00 0.00 0.00
0.00 0.00 0.00 0.00 0.00 0.00 0.00 0.00 0.00 0.00 0.00 0.00 0.00 0.00 0.00 0.00 0.00 0.00 0.00 0.00 0.00 0.00 0.00 0.00 0.00 0.00 0.00 0.00 0.00 0.00 0.00 0.00 0.00 0.00 0.00 0.00 0.00 0.00 0.00 0.00 0.00 0.00 0.00 0.00
0.00 0.00 0.00 0.00 0.00 0.00 0.00 0.00 0.00 0.00 0.00 0.00 0.00 0.00 0.00 0.00 0.00 0.00 0.00 0.00 0.00 0.00 0.00 0.00 0.00 0.00 0.00 0.00 0.00 0.00 0.00 0.00 0.00 0.00 0.00 0.00 0.00 0.00 0.00 0.00 0.00 0.00 0.00 0.00
0.00 0.00 0.00 0.00 0.00 0.00 0.00 0.00 0.00 0.00 0.00 0.00 0.00 0.00 0.00 0.00 0.00 0.00 0.00 0.00 0.00 0.00 0.00 0.00 0.00 0.00 0.00 0.00 0.00 0.00 0.00 0.00 0.00 0.00 0.00 0.00 0.00 0.00 0.00 0.00 0.00 0.00 0.00 0.00
0.00 0.00 0.00 0.00 0.00 0.00 0.00 0.00 0.00 0.00 0.00 0.00 0.00 0.00 0.00 0.00 0.00 0.00 0.00 0.00 0.00 0.00 0.00 0.00 0.00 0.00 0.00 0.00 0.00 0.00 0.00 0.00 0.00 0.00 0.00 0.00 0.00 0.00 0.00 0.00 0.00 0.00 0.00 0.00
0.00 0.00 0.00 0.00 0.00 0.00 0.00 0.00 0.00 0.00 0.00 0.00 0.00 0.00 0.00 0.00 0.00 0.00 0.00 0.00 0.00 0.00 0.00 0.00 0.00 0.00 0.00 0.00 0.00 0.00 0.00 0.00 0.00 0.00 0.00 0.00 0.00 0.00 0.00 0.00 0.00 0.00 0.00 0.00
0.00 0.00 0.00 0.00 0.00 0.00 0.00 0.00 0.00 0.00 0.00 0.00 0.00 0.00 0.00 0.00 0.00 0.00 0.00 0.00 0.00 0.00 0.00 0.00 0.00 0.00 0.00 0.00 0.00 0.00 0.00 0.00 0.00 0.00 0.00 0.00 0.00 0.00 0.00 0.00 0.00 0.00 0.00 0.00
0.00 0.00 0.00 0.00 0.00 0.00 0.00 0.00 0.00 0.00 0.00 0.00 0.00 0.00 0.00 0.00 0.00 0.00 0.00 0.00 0.00 0.00 0.00 0.00 0.00 0.00 0.00 0.00 0.00 0.00 0.00 0.00 0.00 0.00 0.00 0.00 0.00 0.00 0.00 0.00 0.00 0.00 0.00 0.00
0.00 0.00 0.00 0.00 0.00 0.00 0.00 0.00 0.00 0.00 0.00 0.00 0.00 0.00 0.00 0.00 0.00 0.00 0.00 0.00 0.00 0.00 0.00 0.00 0.00 0.00 0.00 0.00 0.00 0.00 0.00 0.00 0.00 0.00 0.00 0.00 0.00 0.00 0.00 0.00 0.00 0.00 0.00 0.00
0.00 0.00 0.00 0.00 0.00 0.00 0.00 0.00 0.00 0.00 0.00 0.00 0.00 0.00 0.00 0.00 0.00 0.00 0.00 0.00 0.00 0.00 0.00 0.00 0.00 0.00 0.00 0.00 0.00 0.00 0.00 0.00 0.00 0.00 0.00 0.00 0.00 0.00 0.00 0.00 0.00 0.00 0.00 0.00
0.00 0.00 0.00 0.00 0.00 0.00 0.00 0.00 0.00 0.00 0.00 0.00 0.00 0.00 0.00 0.00 0.00 0.00 0.00 0.00 0.00 0.00 0.00 0.00 0.00 0.00 0.00 0.00 0.00 0.00 0.00 0.00 0.00 0.00 0.00 0.00 0.00 0.00 0.00 0.00 0.00 0.00 0.00 0.00
0.00 0.00 0.00 0.00 0.00 0.00 0.00 0.00 0.00 0.00 0.00 0.00 0.00 0.00 0.00 0.00 0.00 0.00 0.00 0.00 0.00 0.00 0.00 0.00 0.00 0.00 0.00 0.00 0.00 0.00 0.00 0.00 0.00 0.00 0.00 0.00 0.00 0.00 0.00 0.00 0.00 0.00 0.00 0.00
0.00 0.00 0.00 0.00 0.00 0.00 0.00 0.00 0.00 0.00 0.00 0.00 0.00 0.00 0.00 0.00 0.00 0.00 0.00 0.00 0.00 0.00 0.00 0.00 0.00 0.00 0.00 0.00 0.00 0.00 0.00 0.00 0.00 0.00 0.00 0.00 0.00 0.00 0.00 0.00 0.00 0.00 0.00 0.00
0.00 0.00 0.00 0.00 0.00 0.00 0.00 0.00 0.00 0.00 0.00 0.00 0.00 0.00 0.00 0.00 0.00 0.00 0.00 0.00 0.00 0.00 0.00 0.00 0.00 0.00 0.00 0.00 0.00 0.00 0.00 0.00 0.00 0.00 0.00 0.00 0.00 0.00 0.00 0.00 0.00 0.00 0.00 0.00
0.00 0.00 0.00 0.00 0.00 0.00 0.00 0.00 0.00 0.00 0.00 0.00 0.00 0.00 0.00 0.00 0.00 0.00 0.00 0.00 0.00 0.00 0.00 0.00 0.00 0.00 0.00 0.00 0.00 0.00 0.00 0.00 0.00 0.00 0.00 0.00 0.00 0.00 0.00 0.00 0.00 0.00 0.00 0.00
0.00 0.00 0.00 0.00 0.00 0.00 0.00 0.00 0.00 0.00 0.00 0.00 0.00 0.00 0.00 0.00 0.00 0.00 0.00 0.00 0.00 0.00 0.00 0.00 0.00 0.00 0.00 0.00 0.00 0.00 0.00 0.00 0.00 0.00 0.00 0.00 0.00 0.00 0.00 0.00 0.00 0.00 0.00 0.00
0.00 0.00 0.00 0.00 0.00 0.00 0.00 0.00 0.00 0.00 0.00 0.00 0.00 0.00 0.00 0.00 0.00 0.00 0.00 0.00 0.00 0.00 0.00 0.00 0.00 0.00 0.00 0.00 0.00 0.00 0.00 0.00 0.00 0.00 0.00 0.00 0.00 0.00 0.00 0.00 0.00 0.00 0.00 0.00
0.00 0.00 0.00 0.00 0.00 0.00 0.00 0.00 0.00 0.00 0.00 0.00 0.00 0.00 0.00 0.00 0.00 0.00 0.00 0.00 0.00 0.00 0.00 0.00 0.00 0.00 0.00 0.00 0.00 0.00 0.00 0.00 0.00 0.00 0.00 0.00 0.00 0.00 0.00 0.00 0.00 0.00 0.00 0.00
0.00 0.00 0.00 0.00 0.00 0.00 0.00 0.00 0.00 0.00 0.00 0.00 0.00 0.00 0.00 0.00 0.00 0.00 0.00 0.00 0.00 0.00 0.00 0.00 0.00 0.00 0.00 0.00 0.00 0.00 0.00 0.00 0.00 0.00 0.00 0.00 0.00 0.00 0.00 0.00 0.00 0.00 0.00 0.00
0.00 0.00 0.00 0.00 0.00 0.00 0.00 0.00 0.00 0.00 0.00 0.00 0.00 0.00 0.00 0.00 0.00 0.00 0.00 0.00 0.00 0.00 0.00 0.00 0.00 0.00 0.00 0.00 0.00 0.00 0.00 0.00 0.00 0.00 0.00 0.00 0.00 0.00 0.00 0.00 0.00 0.00 0.00 0.00
0.00 0.00 0.00 0.00 0.00 0.00 0.00 0.00 0.00 0.00 0.00 0.00 0.00 0.00 0.00 0.00 0.00 0.00 0.00 0.00 0.00 0.00 0.00 0.00 0.00 0.00 0.00 0.00 0.00 0.00 0.00 0.00 0.00 0.00 0.00 0.00 0.00 0.00 0.00 0.00 0.00 0.00 0.00 0.00
MSLP
1013.84 1014.52 1015.10 1015.56 1015.89 1016.06 1016.09 1015.97 1015.72 1015.35 1014.88 1014.34 1013.76 1013.18 1012.65 1012.21 1011.87 1011.66 1011.55 1011.52 1011.53 1011.53 1011.47 1011.32 1011.07 1010.71 1010.27 1009.79 1009.33 1008.92 1008.62 1008.44 1008.40 1008.47 1008.64 1008.87 1009.12 1009.34 1009.52 1009.62 1009.66 1009.63 1009.56 1009.48
1013.56 1014.16 1014.69 1015.13 1015.47 1015.70 1015.82 1015.83 1015.70 1015.44 1015.06 1014.58 1014.02 1013.45 1012.91 1012.45 1012.12 1011.92 1011.86 1011.90 1011.99 1012.07 1012.09 1011.98 1011.73 1011.35 1010.86 1010.32 1009.77 1009.29 1008.93 1008.70 1008.63 1008.69 1008.84 1009.05 1009.27 1009.44 1009.55 1009.57 1009.52 1009.40 1009.25 1009.10
1013.15 1013.65 1014.10 1014.51 1014.87 1015.18 1015.42 1015.57 1015.59 1015.47 1015.21 1014.80 1014.29 1013.73 1013.17 1012.69 1012.34 1012.15 1012.11 1012.20 1012.35 1012.50 1012.58 1012.52 1012.31 1011.93 1011.43 1010.86 1010.28 1009.77 1009.39 1009.15 1009.08 1009.13 1009.28 1009.47 1009.65 1009.76 1009.80 1009.73 1009.58 1009.38 1009.14 1008.90
1012.67 1013.07 1013.44 1013.82 1014.21 1014.59 1014.96 1015.26 1015.45 1015.49 1015.35 1015.03 1014.56 1014.00 1013.42 1012.90 1012.51 1012.29 1012.25 1012.34 1012.53 1012.74 1012.87 1012.88 1012.71 1012.38 1011.91 1011.37 1010.81 1010.32 1009.95 1009.74 1009.68 1009.75 1009.89 1010.06 1010.20 1010.26 1010.22 1010.08 1009.84 1009.55 1009.22 1008.90
1012.21 1012.50 1012.81 1013.16 1013.58 1014.05 1014.54 1014.99 1015.34 1015.52 1015.50 1015.26 1014.82 1014.25 1013.63 1013.05 1012.60 1012.32 1012.23 1012.32 1012.52 1012.76 1012.95 1013.03 1012.94 1012.68 1012.29 1011.82 1011.33 1010.90 1010.58 1010.41 1010.38 1010.46 1010.60 1010.75 1010.85 1010.86 1010.76 1010.54 1010.24 1009.87 1009.47 1009.07
1011.82 1012.03 1012.28 1012.62 1013.06 1013.61 1014.21 1014.80 1015.29 1015.59 1015.66 1015.47 1015.04 1014.45 1013.77 1013.11 1012.58 1012.22 1012.08 1012.13 1012.33 1012.60 1012.85 1013.00 1013.01 1012.86 1012.58 1012.21 1011.82 1011.48 1011.24 1011.12 1011.12 1011.21 1011.34 1011.47 1011.53 1011.49 1011.33 1011.06 1010.71 1010.29 1009.84 1009.39
1011.53 1011.68 1011.89 1012.23 1012.71 1013.32 1014.01 1014.70 1015.28 1015.67 1015.79 1015.63 1015.19 1014.56 1013.81 1013.07 1012.44 1012.01 1011.80 1011.82 1012.02 1012.31 1012.62 1012.86 1012.98 1012.96 1012.81 1012.57 1012.30 1012.06 1011.89 1011.82 1011.84 1011.93 1012.04 1012.13 1012.15 1012.07 1011.87 1011.57 1011.19 1010.75 1010.28 1009.80
1011.30 1011.42 1011.63 1011.97 1012.49 1013.15 1013.90 1014.65 1015.28 1015.71 1015.85 1015.68 1015.22 1014.54 1013.72 1012.91 1012.21 1011.71 1011.46 1011.45 1011.65 1011.98 1012.35 1012.69 1012.93 1013.04 1013.03 1012.92 1012.77 1012.62 1012.51 1012.47 1012.50 1012.57 1012.65 1012.70 1012.67 1012.56 1012.33 1012.02 1011.63 1011.19 1010.73 1010.24
1011.10 1011.21 1011.43 1011.80 1012.34 1013.03 1013.81 1014.58 1015.23 1015.65 1015.78 1015.59 1015.09 1014.36 1013.50 1012.64 1011.90 1011.37 1011.10 1011.09 1011.31 1011.68 1012.13 1012.57 1012.92 1013.16 1013.27 1013.29 1013.23 1013.16 1013.09 1013.07 1013.09 1013.12 1013.15 1013.15 1013.08 1012.92 1012.69 1012.37 1012.00 1011.58 1011.13 1010.66
1010.84 1010.98 1011.23 1011.63 1012.20 1012.90 1013.68 1014.44 1015.06 1015.45 1015.54 1015.31 1014.78 1014.03 1013.16 1012.29 1011.56 1011.03 1010.78 1010.80 1011.07 1011.50 1012.02 1012.55 1013.00 1013.34 1013.56 1013.67 1013.69 1013.66 1013.62 1013.59 1013.57 1013.56 1013.54 1013.48 1013.37 1013.18 1012.93 1012.62 1012.27 1011.88 1011.46 1011.01
1010.50 1010.68 1010.98 1011.42 1012.00 1012.71 1013.46 1014.17 1014.73 1015.06 1015.10 1014.83 1014.29 1013.55 1012.71 1011.90 1011.22 1010.76 1010.57 1010.66 1010.98 1011.47 1012.06 1012.66 1013.18 1013.60 1013.89 1014.06 1014.13 1014.13 1014.09 1014.04 1013.98 1013.92 1013.84 1013.73 1013.57 1013.36 1013.10 1012.80 1012.46 1012.09 1011.69 1011.26
1010.09 1010.33 1010.68 1011.15 1011.75 1012.43 1013.13 1013.77 1014.25 1014.51 1014.50 1014.21 1013.68 1012.99 1012.23 1011.51 1010.94 1010.59 1010.50 1010.67 1011.06 1011.62 1012.25 1012.89 1013.46 1013.92 1014.25 1014.45 1014.54 1014.54 1014.49 1014.42 1014.32 1014.22 1014.09 1013.94 1013.75 1013.51 1013.24 1012.94 1012.60 1012.23 1011.84 1011.41
1009.69 1009.99 1010.39 1010.89 1011.48 1012.12 1012.75 1013.30 1013.69 1013.87 1013.81 1013.51 1013.02 1012.41 1011.77 1011.19 1010.76 1010.54 1010.57 1010.84 1011.31 1011.91 1012.58 1013.23 1013.81 1014.28 1014.61 1014.82 1014.91 1014.91 1014.86 1014.76 1014.64 1014.50 1014.34 1014.16 1013.94 1013.69 1013.40 1013.09 1012.74 1012.36 1011.95 1011.49
1009.40 1009.76 1010.20 1010.71 1011.27 1011.84 1012.38 1012.82 1013.11 1013.21 1013.10 1012.82 1012.39 1011.88 1011.38 1010.96 1010.70 1010.64 1010.80 1011.16 1011.69 1012.32 1012.99 1013.64 1014.20 1014.65 1014.97 1015.16 1015.25 1015.25 1015.18 1015.08 1014.95 1014.80 1014.62 1014.42 1014.19 1013.92 1013.61 1013.28 1012.90 1012.49 1012.04 1011.55
1009.34 1009.75 1010.20 1010.69 1011.19 1011.68 1012.10 1012.41 1012.59 1012.61 1012.47 1012.20 1011.85 1011.46 1011.11 1010.87 1010.78 1010.88 1011.15 1011.60 1012.17 1012.81 1013.47 1014.08 1014.60 1015.01 1015.30 1015.48 1015.55 1015.56 1015.50 1015.40 1015.28 1015.13 1014.95 1014.74 1014.50 1014.22 1013.89 1013.52 1013.11 1012.66 1012.16 1011.61
1009.58 1010.00 1010.44 1010.88 1011.30 1011.66 1011.95 1012.13 1012.19 1012.13 1011.96 1011.72 1011.44 1011.18 1010.99 1010.91 1010.98 1011.22 1011.60 1012.11 1012.70 1013.34 1013.95 1014.52 1014.99 1015.36 1015.61 1015.77 1015.85 1015.85 1015.81 1015.73 1015.62 1015.48 1015.32 1015.11 1014.86 1014.56 1014.21 1013.81 1013.36 1012.86 1012.30 1011.70
1010.12 1010.53 1010.92 1011.27 1011.57 1011.80 1011.94 1011.98 1011.93 1011.79 1011.60 1011.39 1011.19 1011.05 1011.00 1011.07 1011.28 1011.63 1012.09 1012.64 1013.25 1013.85 1014.43 1014.94 1015.36 1015.68 1015.91 1016.05 1016.13 1016.14 1016.12 1016.06 1015.97 1015.85 1015.68 1015.48 1015.22 1014.90 1014.53 1014.10 1013.61 1013.06 1012.46 1011.81
1010.88 1011.24 1011.55 1011.79 1011.95 1012.03 1012.02 1011.93 1011.78 1011.58 1011.38 1011.20 1011.08 1011.05 1011.12 1011.32 1011.64 1012.08 1012.60 1013.17 1013.76 1014.34 1014.87 1015.32 1015.70 1015.99 1016.19 1016.33 1016.40 1016.43 1016.42 1016.37 1016.29 1016.17 1016.01 1015.79 1015.52 1015.19 1014.79 1014.33 1013.81 1013.23 1012.60 1011.91
1011.71 1011.99 1012.19 1012.30 1012.32 1012.26 1012.11 1011.92 1011.69 1011.46 1011.26 1011.13 1011.08 1011.15 1011.33 1011.63 1012.03 1012.53 1013.08 1013.66 1014.23 1014.77 1015.26 1015.67 1016.01 1016.27 1016.46 1016.59 1016.67 1016.70 1016.69 1016.65 1016.56 1016.43 1016.25 1016.01 1015.72 1015.36 1014.94 1014.45 1013.91 1013.31 1012.66 1011.96
1012.42 1012.61 1012.70 1012.68 1012.57 1012.39 1012.14 1011.87 1011.60 1011.37 1011.21 1011.13 1011.17 1011.32 1011.59 1011.96 1012.43 1012.95 1013.52 1014.09 1014.64 1015.15 1015.60 1015.98 1016.30 1016.54 1016.72 1016.85 1016.92 1016.95 1016.93 1016.86 1016.75 1016.59 1016.37 1016.10 1015.77 1015.38 1014.94 1014.44 1013.89 1013.28 1012.63 1011.93
1012.88 1012.97 1012.95 1012.83 1012.62 1012.36 1012.06 1011.77 1011.51 1011.31 1011.21 1011.21 1011.32 1011.55 1011.89 1012.32 1012.81 1013.35 1013.91 1014.46 1014.99 1015.47 1015.89 1016.26 1016.56 1016.79 1016.97 1017.08 1017.14 1017.15 1017.10 1017.00 1016.84 1016.63 1016.37 1016.05 1015.69 1015.27 1014.80 1014.29 1013.73 1013.13 1012.48 1011.78
1012.99 1013.00 1012.89 1012.70 1012.45 1012.16 1011.86 1011.60 1011.40 1011.28 1011.26 1011.35 1011.55 1011.85 1012.23 1012.69 1013.20 1013.73 1014.27 1014.79 1015.29 1015.74 1016.15 1016.50 1016.79 1017.02 1017.18 1017.29 1017.33 1017.30 1017.21 1017.06 1016.84 1016.57 1016.26 1015.89 1015.48 1015.03 1014.55 1014.03 1013.47 1012.87 1012.22 1011.53
1012.78 1012.72 1012.57 1012.35 1012.10 1011.84 1011.61 1011.43 1011.33 1011.31 1011.40 1011.58 1011.86 1012.22 1012.64 1013.10 1013.60 1014.11 1014.61 1015.10 1015.56 1015.99 1016.37 1016.71 1016.99 1017.21 1017.36 1017.45 1017.46 1017.39 1017.25 1017.04 1016.76 1016.43 1016.06 1015.64 1015.20 1014.73 1014.23 1013.70 1013.14 1012.54 1011.89 1011.20
1012.33 1012.23 1012.07 1011.88 1011.68 1011.51 1011.38 1011.32 1011.35 1011.46 1011.66 1011.94 1012.28 1012.68 1013.11 1013.57 1014.03 1014.50 1014.96 1015.40 1015.82 1016.22 1016.58 1016.90 1017.17 1017.37 1017.50 1017.55 1017.52 1017.41 1017.21 1016.94 1016.61 1016.23 1015.80 1015.35 1014.88 1014.39 1013.88 1013.35 1012.79 1012.19 1011.53 1010.83
1011.79 1011.69 1011.56 1011.43 1011.32 1011.27 1011.28 1011.36 1011.53 1011.77 1012.07 1012.43 1012.82 1013.23 1013.65 1014.08 1014.50 1014.91 1015.32 1015.71 1016.09 1016.45 1016.78 1017.07 1017.31 1017.48 1017.58 1017.60 1017.52 1017.35 1017.10 1016.78 1016.40 1015.97 1015.52 1015.04 1014.56 1014.06 1013.55 1013.02 1012.45 1011.84 1011.18 1010.45
1011.31 1011.23 1011.16 1011.12 1011.14 1011.22 1011.37 1011.60 1011.90 1012.25 1012.63 1013.04 1013.45 1013.86 1014.26 1014.64 1015.00 1015.35 1015.70 1016.03 1016.36 1016.67 1016.96 1017.21 1017.41 1017.54 1017.60 1017.56 1017.43 1017.21 1016.91 1016.54 1016.12 1015.67 1015.19 1014.71 1014.23 1013.74 1013.23 1012.70 1012.13 1011.51 1010.84 1010.10
Thickness
5616 5614 5619 5632 5641 5647 5646 5648 5649 5663 5685 5688 5689 5695 5706 5712 5712 5713 5713 5715 5716 5717 5719 5722 5726 5729 5734 5737 5740 5741 5742 5742 5739 5733 5726 5720 5717 5716 5714 5712 5709 5705 5702 5699
5606 5613 5630 5640 5641 5642 5642 5641 5647 5667 5688 5690 5690 5694 5703 5710 5710 5710 5710 5710 5710 5710 5713 5715 5718 5720 5722 5725 5727 5729 5730 5732 5732 5729 5724 5718 5714 5710 5707 5705 5702 5700 5698 5696
5612 5625 5635 5635 5637 5636 5639 5640 5648 5662 5677 5685 5685 5684 5695 5701 5705 5706 5705 5706 5706 5705 5705 5706 5707 5709 5711 5712 5713 5716 5717 5718 5719 5720 5717 5712 5707 5702 5698 5695 5693 5692 5690 5688
5612 5629 5631 5631 5634 5636 5636 5654 5658 5663 5659 5656 5670 5658 5682 5690 5695 5697 5697 5698 5698 5698 5697 5697 5697 5699 5700 5700 5702 5704 5704 5704 5704 5705 5703 5698 5692 5687 5684 5682 5681 5680 5679 5677
5613 5625 5628 5630 5640 5643 5648 5662 5662 5660 5655 5652 5658 5656 5671 5683 5683 5687 5690 5693 5693 5691 5690 5689 5689 5690 5690 5691 5692 5693 5693 5692 5690 5689 5687 5684 5679 5675 5673 5671 5668 5667 5665 5663
5619 5632 5636 5640 5649 5651 5656 5653 5648 5638 5638 5638 5652 5647 5667 5677 5685 5686 5686 5687 5686 5684 5682 5682 5682 5683 5683 5683 5683 5682 5681 5678 5676 5675 5673 5669 5665 5661 5659 5656 5653 5651 5650 5648
5611 5624 5637 5645 5641 5648 5647 5630 5620 5624 5621 5633 5653 5651 5672 5692 5698 5695 5688 5683 5680 5678 5676 5675 5675 5675 5675 5674 5672 5671 5669 5665 5662 5660 5658 5654 5650 5646 5642 5638 5636 5634 5633 5631
5603 5609 5632 5644 5645 5642 5639 5634 5621 5620 5622 5636 5655 5653 5680 5692 5697 5693 5687 5680 5676 5672 5670 5670 5669 5668 5666 5665 5662 5659 5655 5651 5648 5645 5642 5638 5635 5630 5626 5622 5619 5617 5615 5614
5609 5614 5635 5647 5653 5646 5633 5633 5638 5631 5635 5634 5643 5660 5681 5682 5683 5681 5676 5673 5670 5668 5666 5664 5662 5660 5658 5655 5650 5646 5642 5637 5633 5630 5627 5623 5619 5615 5611 5607 5603 5600 5597 5596
5626 5617 5631 5641 5648 5648 5646 5641 5628 5626 5625 5625 5642 5654 5662 5670 5670 5671 5670 5667 5665 5663 5659 5657 5654 5651 5647 5643 5637 5632 5628 5623 5620 5617 5613 5610 5605 5600 5596 5592 5588 5584 5580 5577
5630 5619 5621 5631 5633 5634 5639 5640 5635 5628 5625 5623 5628 5645 5669 5670 5670 5669 5667 5664 5661 5657 5653 5649 5645 5641 5635 5629 5623 5619 5615 5611 5607 5603 5599 5595 5590 5585 5580 5575 5570 5566 5562 5558
5632 5619 5612 5626 5638 5641 5641 5641 5633 5626 5627 5623 5620 5639 5673 5671 5668 5665 5661 5659 5656 5652 5647 5641 5636 5629 5622 5615 5610 5606 5602 5598 5594 5589 5584 5579 5574 5568 5563 5558 5553 5549 5544 5539
5634 5622 5610 5613 5623 5633 5637 5640 5638 5632 5626 5619 5620 5640 5664 5663 5660 5659 5656 5654 5649 5643 5636 5629 5622 5615 5608 5602 5597 5592 5587 5582 5578 5573 5567 5561 5555 5549 5544 5539 5534 5529 5524 5519
5640 5628 5625 5622 5629 5632 5633 5638 5638 5633 5623 5622 5627 5641 5653 5654 5653 5653 5651 5646 5639 5632 5625 5616 5607 5600 5594 5588 5581 5575 5569 5564 5559 5553 5547 5540 5534 5528 5523 5518 5512 5506 5499 5493
5638 5629 5632 5635 5639 5638 5640 5639 5638 5635 5633 5627 5634 5635 5643 5646 5648 5647 5644 5637 5627 5621 5613 5603 5592 5583 5577 5570 5564 5558 5552 5546 5540 5534 5527 5520 5514 5507 5501 5495 5488 5481 5473 5466
5631 5627 5629 5629 5632 5635 5635 5636 5633 5632 5632 5629 5630 5632 5640 5644 5641 5637 5633 5626 5618 5609 5598 5586 5577 5567 5559 5553 5548 5541 5534 5528 5521 5514 5506 5500 5493 5485 5477 5469 5462 5454 5447 5441
5621 5622 5617 5614 5619 5626 5622 5629 5627 5628 5630 5629 5627 5634 5640 5634 5628 5625 5622 5616 5606 5593 5581 5571 5561 5553 5546 5539 5531 5524 5517 5510 5502 5494 5485 5478 5470 5461 5452 5443 5435 5429 5423 5419
5615 5609 5602 5603 5609 5605 5623 5632 5631 5628 5629 5629 5632 5632 5629 5622 5611 5603 5603 5598 5586 5575 5564 5554 5545 5538 5531 5523 5514 5506 5498 5490 5482 5472 5462 5454 5446 5437 5428 5419 5412 5407 5404 5400
5608 5604 5595 5590 5595 5601 5615 5624 5627 5626 5619 5618 5622 5619 5613 5606 5602 5591 5584 5578 5568 5558 5548 5539 5531 5523 5514 5505 5496 5488 5479 5470 5460 5450 5440 5431 5422 5413 5406 5399 5394 5390 5387 5385
5594 5595 5588 5584 5588 5591 5608 5621 5624 5623 5605 5606 5608 5606 5603 5599 5588 5580 5569 5561 5552 5543 5535 5525 5516 5507 5497 5487 5478 5469 5459 5449 5439 5428 5418 5408 5399 5392 5386 5382 5377 5373 5370 5368
5582 5581 5578 5579 5579 5586 5602 5612 5617 5604 5596 5595 5596 5594 5590 5584 5575 5565 5554 5546 5538 5529 5519 5509 5498 5487 5477 5468 5459 5449 5438 5427 5417 5407 5398 5389 5381 5374 5370 5366 5360 5356 5354 5351
5577 5571 5570 5568 5571 5580 5602 5606 5598 5590 5590 5589 5586 5582 5576 5565 5557 5549 5542 5533 5522 5511 5500 5489 5478 5468 5458 5448 5438 5426 5415 5406 5397 5389 5381 5374 5366 5359 5355 5348 5344 5338 5332 5329
5577 5582 5580 5579 5584 5592 5596 5594 5590 5586 5581 5579 5573 5569 5562 5552 5543 5534 5524 5513 5502 5491 5479 5469 5459 5448 5437 5427 5416 5404 5395 5387 5380 5372 5364 5358 5353 5346 5339 5331 5325 5321 5313 5305
5578 5583 5581 5582 5584 5584 5582 5581 5579 5575 5570 5564 5559 5552 5545 5536 5527 5516 5503 5491 5481 5471 5460 5450 5439 5428 5416 5405 5394 5385 5377 5371 5363 5356 5350 5345 5339 5333 5326 5316 5307 5298 5290 5281
5572 5578 5575 5576 5577 5574 5567 5564 5562 5558 5552 5546 5539 5532 5525 5517 5508 5496 5485 5475 5464 5454 5442 5432 5420 5409 5397 5386 5375 5368 5362 5355 5349 5343 5338 5332 5325 5316 5308 5300 5289 5279 5271 5257
5555 5565 5566 5566 5567 5563 5558 5555 5548 5541 5534 5527 5520 5512 5503 5497 5488 5479 5468 5457 5447 5435 5424 5413 5401 5390 5380 5369 5361 5354 5349 5342 5336 5332 5326 5318 5308 5298 5287 5279 5276 5270 5256 5248